FW6456 Weather Reports


time (UTC)temp
C
wind
direction
speed
KPH
gust
KPH
rain 1hr
cm
rain 24hr
cm
rain mn
cm
humidity
%
barometer
mb
20260504081524 13 108 0.0 0.0 0.00 0.00 0.00 72 3404.0
20260504081019 13 84 4.8 8.0 0.00 0.00 0.00 72 3404.1
20260504080516 13 116 0.0 0.0 0.00 0.00 0.00 72 3403.9
20260504050328 10 71 0.0 0.0 0.00 0.00 0.00 82 3405.8
20260504045825 10 71 0.0 0.0 0.00 0.00 0.00 82 3406.2
20260504045320 10 71 0.0 0.0 0.00 0.00 0.00 82 3405.7
20260504044817 10 71 0.0 0.0 0.00 0.00 0.00 82 3406.0
20260504044315 10 71 0.0 0.0 0.00 0.00 0.00 83 3405.8
20260504043812 10 71 0.0 0.0 0.00 0.00 0.00 83 3405.8
20260504043309 10 71 0.0 0.0 0.00 0.00 0.00 83 3405.9
20260504042806 10 71 0.0 0.0 0.00 0.00 0.00 83 3406.3
20260504042304 10 71 0.0 0.0 0.00 0.00 0.00 83 3406.1
20260504041759 10 71 0.0 0.0 0.00 0.00 0.00 83 3406.1
20260504041255 10 71 0.0 0.0 0.00 0.00 0.00 82 3406.3
20260504040751 10 71 0.0 0.0 0.00 0.00 0.00 82 3406.3
20260504040249 10 71 0.0 0.0 0.00 0.00 0.00 81 3406.3
20260504035744 10 71 0.0 0.0 0.00 0.00 0.00 81 3406.5
20260504035242 10 71 0.0 0.0 0.00 0.00 0.00 81 3406.7
20260504034739 10 71 0.0 0.0 0.00 0.00 0.00 81 3406.6
20260504034237 10 71 0.0 0.0 0.00 0.00 0.00 81 3406.7
20260504033734 11 71 0.0 0.0 0.00 0.00 0.00 81 3406.6
20260504033231 11 71 0.0 0.0 0.00 0.00 0.00 81 3406.7
20260504032728 11 71 0.0 0.0 0.00 0.00 0.00 81 3406.7
20260504032225 11 71 0.0 0.0 0.00 0.00 0.00 80 3406.4
20260504031722 11 71 0.0 0.0 0.00 0.00 0.00 80 3406.7
20260504031220 11 71 0.0 0.0 0.00 0.00 0.00 80 3406.6
20260504030715 11 71 0.0 0.0 0.00 0.00 0.00 80 3406.7
20260504030213 11 71 0.0 0.0 0.00 0.00 0.00 80 3406.6
20260504025709 11 71 0.0 0.0 0.00 0.00 0.00 79 3406.7
20260504025206 11 71 0.0 0.0 0.00 0.00 0.00 78 3406.6
20260504024703 11 71 0.0 0.0 0.00 0.00 0.00 78 3406.8
20260504024159 11 71 0.0 0.0 0.00 0.00 0.00 78 3406.9
20260504023656 11 71 0.0 0.0 0.00 0.00 0.00 77 3406.5
20260504023152 11 71 0.0 0.0 0.00 0.00 0.00 77 3406.8
20260504022648 11 71 0.0 0.0 0.00 0.00 0.00 77 3406.8
20260504022144 12 71 0.0 0.0 0.00 0.00 0.00 77 3406.9
20260504021642 12 71 0.0 0.0 0.00 0.00 0.00 77 3406.9
20260504021139 12 71 0.0 0.0 0.00 0.00 0.00 76 3407.1
20260504020636 12 71 0.0 0.0 0.00 0.00 0.00 75 3407.0
20260504020132 13 71 0.0 0.0 0.00 0.00 0.00 74 3407.0
20260504015629 13 71 0.0 0.0 0.00 0.00 0.00 73 3406.8
20260504015125 13 71 0.0 0.0 0.00 0.00 0.00 69 3407.0
20260504014621 13 71 0.0 0.0 0.00 0.00 0.00 67 3406.8
20260504014118 13 71 0.0 0.0 0.00 0.00 0.00 65 3406.5
20260504013616 14 71 0.0 0.0 0.00 0.00 0.00 64 3406.3
20260504013113 14 71 0.0 0.0 0.00 0.00 0.00 64 3406.4
20260504012610 14 71 0.0 0.0 0.00 0.00 0.00 64 3406.5
20260504012108 14 71 0.0 0.0 0.00 0.00 0.00 65 3406.2
20260504011604 15 71 0.0 0.0 0.00 0.00 0.00 63 3406.0
20260504011100 15 71 0.0 0.0 0.00 0.00 0.00 64 3406.0
20260504010556 15 71 0.0 0.0 0.00 0.00 0.00 63 3406.0
20260504010052 15 71 0.0 0.0 0.00 0.00 0.00 60 3406.0
20260504005549 15 71 0.0 0.0 0.00 0.00 0.00 60 3406.0
20260504005047 16 71 0.0 0.0 0.00 0.00 0.00 59 3406.0
20260504004544 16 151 0.0 0.0 0.00 0.00 0.00 59 3406.1
20260504004041 16 153 0.0 0.0 0.00 0.00 0.00 58 3405.9
20260504003537 16 153 0.0 3.2 0.00 0.00 0.00 56 3406.1
20260504003034 16 154 0.0 0.0 0.00 0.00 0.00 57 3406.0
20260504002531 16 155 0.0 0.0 0.00 0.00 0.00 56 3406.2
20260504002029 17 155 0.0 0.0 0.00 0.00 0.00 56 3406.1
20260504001526 17 155 0.0 3.2 0.00 0.00 0.00 55 3406.1
20260504001022 17 155 0.0 0.0 0.00 0.00 0.00 55 3406.1
20260504000520 17 155 0.0 0.0 0.00 0.00 0.00 54 3406.2
20260504000017 17 155 0.0 0.0 0.00 0.00 0.00 52 3406.0
20260503235515 18 156 0.0 0.0 0.00 0.00 0.00 52 3406.2
20260503235012 18 104 0.0 0.0 0.00 0.00 0.00 52 3406.3
20260503234509 18 142 3.2 4.8 0.00 0.00 0.00 51 3406.6
20260503234008 18 163 4.8 4.8 0.00 0.00 0.00 50 3406.5
20260503233503 18 102 1.6 3.2 0.00 0.00 0.00 50 3406.5
20260503232959 18 46 1.6 4.8 0.00 0.00 0.00 50 3406.5
20260503232456 18 180 3.2 4.8 0.00 0.00 0.00 51 3406.4
20260503231954 18 102 1.6 3.2 0.00 0.00 0.00 51 3406.3
20260503231452 18 274 6.4 8.0 0.00 0.00 0.00 50 3406.5
20260503230948 19 158 1.6 3.2 0.00 0.00 0.00 49 3406.7
20260503230445 20 82 1.6 3.2 0.00 0.00 0.00 47 3406.5
20260503225942 20 133 0.0 3.2 0.00 0.00 0.00 47 3406.6
20260503225439 20 133 0.0 0.0 0.00 0.00 0.00 48 3406.8
20260503224934 20 245 4.8 8.0 0.00 0.00 0.00 47 3406.7
20260503224432 20 108 4.8 4.8 0.00 0.00 0.00 46 3406.9
20260503223929 20 116 0.0 3.2 0.00 0.00 0.00 47 3407.2
20260503223427 20 207 4.8 8.0 0.00 0.00 0.00 45 3407.3
20260503222922 20 149 0.0 3.2 0.00 0.00 0.00 47 3407.2
20260503222421 20 74 6.4 12.9 0.00 0.00 0.00 45 3407.3
20260503221919 20 208 9.7 16.1 0.00 0.00 0.00 45 3407.2
20260503221417 20 118 1.6 3.2 0.00 0.00 0.00 45 3407.4
20260503220913 20 135 3.2 4.8 0.00 0.00 0.00 44 3407.5
20260503220410 20 6 1.6 3.2 0.00 0.00 0.00 46 3407.8
20260503215907 20 98 1.6 3.2 0.00 0.00 0.00 45 3407.6
20260503215404 20 218 4.8 4.8 0.00 0.00 0.00 44 3408.1
20260503214902 20 165 3.2 4.8 0.00 0.00 0.00 45 3408.3
20260503214359 20 195 1.6 3.2 0.00 0.00 0.00 47 3408.1
20260503213856 20 163 4.8 8.0 0.00 0.00 0.00 46 3408.3
20260503213354 20 89 3.2 3.2 0.00 0.00 0.00 45 3408.3
20260503212850 20 334 8.0 11.3 0.00 0.00 0.00 44 3408.3
20260503212348 20 255 9.7 12.9 0.00 0.00 0.00 44 3408.5
20260503211845 20 147 3.2 4.8 0.00 0.00 0.00 45 3408.4
20260503211342 20 172 0.0 0.0 0.00 0.00 0.00 48 3408.4
20260503210837 19 126 4.8 4.8 0.00 0.00 0.00 44 3408.7
20260503210335 19 217 3.2 4.8 0.00 0.00 0.00 44 3408.9
20260503205829 19 163 4.8 4.8 0.00 0.00 0.00 48 3408.8
20260503205326 19 161 1.6 4.8 0.00 0.00 0.00 47 3408.8
20260503204823 19 301 6.4 8.0 0.00 0.00 0.00 47 3409.2
20260503204320 18 146 1.6 3.2 0.00 0.00 0.00 49 3409.2
20260503203817 19 128 4.8 4.8 0.00 0.00 0.00 48 3409.1
20260503203315 18 118 3.2 4.8 0.00 0.00 0.00 48 3409.3
20260503202812 18 185 6.4 11.3 0.00 0.00 0.00 46 3409.3
20260503202310 19 316 4.8 8.0 0.00 0.00 0.00 46 3409.2
20260503201808 19 65 4.8 4.8 0.00 0.00 0.00 49 3409.6
20260503201304 19 171 6.4 16.1 0.00 0.00 0.00 45 3409.6
20260503200802 18 156 1.6 3.2 0.00 0.00 0.00 51 3409.6
20260503200257 18 106 4.8 8.0 0.00 0.00 0.00 50 3409.9
20260503195755 18 111 3.2 4.8 0.00 0.00 0.00 50 3409.9
20260503195251 18 103 4.8 8.0 0.00 0.00 0.00 50 3409.9
20260503194749 18 77 3.2 4.8 0.00 0.00 0.00 49 3410.3
20260503194244 18 132 3.2 4.8 0.00 0.00 0.00 48 3410.2
20260503193741 18 270 3.2 11.3 0.00 0.00 0.00 47 3410.7
20260503193237 18 248 4.8 8.0 0.00 0.00 0.00 48 3410.5
20260503192733 18 55 1.6 3.2 0.00 0.00 0.00 48 3410.7
20260503192228 18 318 4.8 8.0 0.00 0.00 0.00 49 3410.8
20260503191725 18 252 11.3 12.9 0.00 0.00 0.00 47 3410.9
20260503191222 18 269 3.2 4.8 0.00 0.00 0.00 50 3410.7
20260503190720 18 110 3.2 3.2 0.00 0.00 0.00 49 3411.1
20260503190216 18 124 0.0 0.0 0.00 0.00 0.00 51 3411.3
20260503185713 18 299 4.8 11.3 0.00 0.00 0.00 48 3411.3
20260503185208 18 133 3.2 4.8 0.00 0.00 0.00 52 3411.5
20260503184703 18 321 8.0 11.3 0.00 0.00 0.00 48 3411.5
20260503184159 18 256 4.8 4.8 0.00 0.00 0.00 51 3411.6
20260503183656 18 235 8.0 11.3 0.00 0.00 0.00 47 3412.0
20260503183154 18 167 1.6 4.8 0.00 0.00 0.00 50 3412.0
20260503182652 18 12 8.0 11.3 0.00 0.00 0.00 50 3411.6
20260503182150 17 135 1.6 3.2 0.00 0.00 0.00 52 3412.0
20260503181646 17 139 0.0 3.2 0.00 0.00 0.00 53 3412.1
20260503181143 18 236 4.8 4.8 0.00 0.00 0.00 52 3412.1
20260503180640 17 136 3.2 4.8 0.00 0.00 0.00 52 3412.1
20260503180138 17 72 0.0 0.0 0.00 0.00 0.00 52 3412.2
20260503175635 18 134 4.8 8.0 0.00 0.00 0.00 52 3412.5
20260503175132 18 103 3.2 3.2 0.00 0.00 0.00 51 3412.2
20260503174628 17 287 3.2 4.8 0.00 0.00 0.00 54 3412.1
20260503174126 17 84 0.0 3.2 0.00 0.00 0.00 52 3412.5
20260503173620 17 322 4.8 4.8 0.00 0.00 0.00 52 3412.5
20260503173117 17 163 3.2 4.8 0.00 0.00 0.00 50 3412.5
20260503172614 16 239 1.6 3.2 0.00 0.00 0.00 52 3412.7
20260503172112 16 154 1.6 4.8 0.00 0.00 0.00 50 3412.7
20260503171608 16 87 1.6 3.2 0.00 0.00 0.00 53 3413.0
20260503171105 16 169 3.2 4.8 0.00 0.00 0.00 51 3412.9
20260503170601 16 118 1.6 3.2 0.00 0.00 0.00 53 3413.0
20260503150948 13 134 0.0 0.0 0.00 0.00 0.00 69 3413.9
20260503150445 13 107 0.0 0.0 0.00 0.00 0.00 71 3414.0
20260503131338 7 52 0.0 0.0 0.00 0.00 0.00 99 3414.0
20260503130835 6 53 0.0 0.0 0.00 0.00 0.00 99 3413.8
20260503130333 6 50 0.0 0.0 0.00 0.00 0.00 99 3414.0
20260503110721 1 35 0.0 0.0 0.00 0.00 0.00 99 3413.3
20260503110218 1 35 0.0 0.0 0.00 0.00 0.00 99 3413.3
20260503100138 2 35 0.0 0.0 0.00 0.00 0.00 99 3413.0